Hourly Data Report for July 31, 2021

LONDON CS
ONTARIO
Current Station Operator: ECCC - MSC

43°02'00.000" N
81°09'00.000" W
278.00 m
6144478
71622
WSN

Download Data

Hourly Data (July 2021)
Hourly Data Report for July 31, 2021
TIME
LST
Temp Definition
°C
Dew Point Definition
°C
Rel Hum Definition
%
Precip. Amount Definition
mm

Wind Dir Definition
10's deg

Wind Spd Definition
km/h
Visibility Definition
km
Stn Press Definition
kPa
Hmdx Definition


Wind Chill Definition


Weather Definition


00:00 10.9 8.9 87 0.0       98.59     LegendNANA
01:00 11.3 8.7 84 0.0       98.55     LegendNANA
02:00 9.8 8.5 92 0.0       98.54     LegendNANA
03:00 9.3 8.3 94 0.0       98.53     LegendNANA
04:00 9.1 8.2 94 0.0       98.51     LegendNANA
05:00 8.6 7.9 95 0.0       98.53     LegendNANA
06:00 9.4 8.3 92 0.0       98.51     LegendNANA
07:00 11.5 9.0 85 0.0       98.51     LegendNANA
08:00 14.7 10.1 74 0.0       98.51     LegendNANA
09:00 16.7 10.8 68 0.0       98.46     LegendNANA
10:00 18.4 11.8 66 0.0       98.39     LegendNANA
11:00 19.5 11.4 59 0.0       98.37     LegendNANA
12:00 20.1 12.0 60 0.0       98.38     LegendNANA
13:00 21.1 13.1 60 0.0       98.34     LegendNANA
14:00 20.1 13.9 67 0.0       98.27     LegendNANA
15:00 21.2 15.2 69 0.0       98.17 25   LegendNANA
16:00 21.1 15.6 71 0.0       98.12 25   LegendNANA
17:00 20.9 15.6 72 0.0       98.06 25   LegendNANA
18:00 20.8 15.8 73 0.0       98.02 25   LegendNANA
19:00 20.6 15.8 74 0.0       98.02 25   LegendNANA
20:00 19.7 15.8 78 0.0       97.94     LegendNANA
21:00 19.5 16.1 80 0.0       97.95     LegendNANA
22:00 18.9 16.0 83 0.0       97.94     LegendNANA
23:00 18.5 15.8 85 0.0       97.91     LegendNANA

Notes on Data Quality.

Legend

  • E = Estimated
  • M = Missing
  • NA = Not Available*
  • [empty] = Indicates an unobserved value
Date modified: